Location: Poughquag
(41.6090°N, 73.6820°W)
Time: 19:13:21
(UTC-05:00)

A-11 Canister half - Pass Details

Date: 11 December 2023
Orbit: 1526 x 1682 km, 47.3° (Epoch: 23 February)

Event Time Altitude Azimuth Distance (km) Brightness Sun altitude
Rises 20:59:25 0° 286° (WNW) 4,936 12.3 -50.3°
Reaches altitude 10° 21:02:39 10° 289° (WNW) 3,945 11.6 -50.9°
Enters shadow 21:07:51 35° 299° (WNW) 2,479 10.2 -51.9°
